1304035227809,2.08242
1304035287809,2.07067
1304035347809,2.07537
1304035407809,2.08849
1304035467809,2.08667
1304035527809,2.06948
1304035587809,2.08399
1304035647809,2.07897
1304035707809,2.08491
1304035767809,2.06078
1304035827809,2.07245
1304035887809,2.07636
1304035947809,2.06936
1304036007809,2.07593
1304036067809,2.06993
1304036127809,2.08455
1304036187809,2.08292
1304036247809,2.06268
1304036307809,2.06721
1304036367809,2.07459
1304036427809,2.07598
1304036487809,2.07939
1304036547809,2.07352
1304036607809,2.08396
1304036667809,2.08130
1304036727809,2.09353
1304036787809,2.09792
1304036847809,2.10378
1304036907809,2.12041
1304036967809,2.11518
1304037027809,2.15088
1304037087809,2.14423
1304037147809,2.15615
1304037207809,2.15649
1304037267809,2.14419
1304037327809,2.13841
1304037387809,2.14530
1304037447809,2.13357
1304037507809,2.13918
1304037567809,2.14653
1304037627809,2.12754
1304037687809,2.12074
1304037747809,2.14311
1304037807809,2.13563
1304037867809,2.14505
1304037927809,2.13144
1304037987809,2.14386
1304038047809,2.12443
1304038107809,2.11432
1304038167809,2.11139
1304038227809,2.10711
1304038287809,2.11380
1304038347809,2.09686
1304038407809,2.10404
1304038467809,2.12530
1304038527809,2.10674
1304038587809,2.11106
1304038647809,2.08538
1304038707809,2.10536
1304038767809,2.08802
1304038827820,2.08458
1304038887820,2.09766
1304038947820,2.09721
1304039007820,2.08789
1304039067820,2.09516
1304039127820,2.11078
1304039187820,2.09889
1304039247820,2.09135
1304039307820,2.10340
1304039367820,2.09925
1304039427820,2.08781
1304039487820,2.09199
1304039547820,2.09665
1304039607820,2.09764
1304039667820,2.10358
1304039727820,2.10255
1304039787820,2.09291
1304039847820,2.09391
1304039907820,2.05192
1304039967820,2.08715
1304040027820,2.10798
1304040087820,2.09809
1304040147820,2.09277
1304040207820,2.09403
1304040267820,2.09705
1304040327820,2.08956
1304040387820,2.08685
1304040447820,2.09870
1304040507820,2.09765
1304040567820,2.10148
1304040627820,2.10009
1304040687820,2.09374
1304040747820,2.07844
1304040807820,2.08137
1304040867820,2.10095
1304040927820,2.09140
1304040987820,2.09087
1304041047820,2.08785
1304041107820,2.09962
1304041167820,2.09905
1304041227820,2.10001
1304041287820,2.09454
1304041347820,2.09835
1304041407820,2.10957
1304041467820,2.09720
1304041527820,2.09020
1304041587820,2.09771
1304041647820,2.10890
1304041707820,2.10532
1304041767820,2.10004
1304041827820,2.08028
1304041887820,2.08423
1304041947820,2.09294
1304042007820,2.09237
1304042067820,2.10455
1304042127820,2.09750
1304042187820,2.10196
1304042247820,2.09089
1304042307820,2.10473
1304042367820,2.10058
1304042427831,2.10394
1304042487831,2.09538
1304042547831,2.09245
1304042607831,2.08723
1304042667831,2.08916
1304042727831,2.09087
1304042787831,2.10568
1304042847831,2.09486
1304042907831,2.07390
1304042967831,2.08949
1304043027831,2.08725
1304043087831,2.08220
1304043147831,2.08446
1304043207831,2.09133
1304043267831,2.08285
1304043327831,2.07197
1304043387831,2.08376
1304043447831,2.07682
1304043507831,2.09025
1304043567831,2.09627
1304043627831,2.07428
1304043687831,2.08975
1304043747831,2.07990
1304043807831,2.08981
1304043867831,2.08195
1304043927831,2.08492
1304043987831,2.07252
1304044047831,2.08336
1304044107831,2.07589
1304044167831,2.08151
1304044227831,2.07772
1304044287831,2.08943
1304044347831,2.07906
1304044407831,2.08687
1304044467831,2.07717
1304044527831,2.08271
1304044587831,2.07551
1304044647831,2.07260
1304044707831,2.09064
1304044767831,2.07238
1304044827831,2.07535
1304044887831,2.07508
1304044947831,2.08538
1304045007831,2.08129
1304045067831,2.06168
1304045127831,2.08982
1304045187831,2.08496
1304045247831,2.07907
1304045307831,2.07636
1304045367831,2.06979
1304045427831,2.08000
1304045487831,2.06152
1304045547831,2.09299
1304045607831,2.12596
1304045667831,2.07049
1304045727831,2.08071
1304045787831,2.07365
1304045847831,2.07461
1304045907831,2.07451
1304045967831,2.07213
1304046027842,2.08712
1304046087842,2.08125
1304046147842,2.08208
1304046207842,2.08091
1304046267842,2.08153
1304046327842,2.07094
1304046387842,2.08446
1304046447842,2.09314
1304046507842,2.09528
1304046567842,2.09256
1304046627842,2.08629
1304046687842,2.08387
1304046747842,2.09416
1304046807842,2.09052
1304046867842,2.08384
1304046927842,2.08448
1304046987842,2.08068
1304047047842,2.08761
1304047107842,2.07855
1304047167842,2.09717
1304047227842,2.07736
1304047287842,2.08028
1304047347842,2.08546
1304047407842,2.07089
1304047467842,2.09582
1304047527842,2.09872
1304047587842,2.08366
1304047647842,2.08955
1304047707842,2.08455
1304047767842,2.08769
1304047827842,2.08930
1304047887842,2.10823
1304047947842,2.08993
1304048007842,2.09258
1304048067842,2.09946
1304048127842,2.09545
1304048187842,2.08034
1304048247842,2.09094
1304048307842,2.09354
1304048367842,2.10028
1304048427842,2.09663
1304048487842,2.10678
1304048547842,2.08957
1304048607842,2.10623
1304048667842,2.10427
1304048727842,2.10248
1304048787842,2.10477
1304048847842,2.09089
1304048907842,2.10418
1304048967842,2.10323
1304049027842,2.10760
1304049087842,2.09580
1304049147842,2.09753
1304049207842,2.10374
1304049267842,2.12550
1304049327842,2.15085
1304049387842,2.10245
1304049447842,2.11117
1304049507842,2.10351
1304049567842,2.10276
1304049627853,2.11351
1304049687853,2.10846
1304049747853,2.11353
1304049807853,2.12142
1304049867853,2.11852
1304049927853,2.11230
1304049987853,2.11356
1304050047853,2.10714
1304050107853,2.09515
1304050167853,2.11427
1304050227853,2.09787
1304050287853,2.11074
1304050347853,2.11023
1304050407853,2.11580
1304050467853,2.12928
1304050527853,2.10895
1304050587853,2.10771
1304050647853,2.12217
1304050707853,2.13143
1304050767853,2.11081
1304050827853,2.12674
1304050887853,2.12072
1304050947853,2.12200
1304051007853,2.11803
1304051067853,2.12615
1304051127853,2.12153
1304051187853,2.12183
1304051247853,2.12420
1304051307853,2.12415
1304051367853,2.12496
1304051427853,2.10517
1304051487853,2.09173
1304051547853,2.10785
1304051607853,2.11554
1304051667853,2.12703
1304051727853,2.10959
1304051787853,2.11723
1304051847853,2.12831
1304051907853,2.12029
1304051967853,2.11738
1304052027853,2.12632
1304052087853,2.14226
1304052147853,2.11711
1304052207853,2.12668
1304052267853,2.12789
1304052327853,2.12019
1304052387853,2.12275
1304052447853,2.10481
1304052507853,2.11870
1304052567853,2.12787
1304052627853,2.12945
1304052687853,2.12851
1304052747853,2.12318
1304052807853,2.12159
1304052867853,2.11986
1304052927853,2.11553
1304052987853,2.13549
1304053047853,2.11773
1304053107853,2.13373
1304053167853,2.13202
1304053227863,2.13825
1304053287863,2.13569
1304053347863,2.13085
1304053407863,2.12604
1304053467863,2.12736
1304053527863,2.11198
1304053587863,2.13214
1304053647863,2.11113
1304053707863,2.12175
1304053767863,2.11682
1304053827863,2.11468
1304053887863,2.12103
1304053947863,2.14638
1304054007863,2.11674
1304054067863,2.12717
1304054127863,2.11927
1304054187863,2.12952
1304054247863,2.11348
1304054307863,2.12910
1304054367863,2.13085
1304054427863,2.12238
1304054487863,2.12005
1304054547863,2.11427
1304054607863,2.12782
1304054667863,2.11897
1304054727863,2.11529
1304054787863,2.11743
1304054847863,2.11903
1304054907863,2.12116
1304054967863,2.12736
1304055027863,2.12394
1304055087863,2.13236
1304055147863,2.12355
1304055207863,2.11983
1304055267863,2.11325
1304055327863,2.12745
1304055387863,2.13595
1304055447863,2.12765
1304055507863,2.12935
1304055567863,2.13467
1304055627863,2.11857
1304055687863,2.12494
1304055747863,2.13222
1304055807863,2.11033
1304055867863,2.12018
1304055927863,2.13227
1304055987863,2.13807
1304056047863,2.11278
1304056107863,2.13073
1304056167863,2.13011
1304056227863,2.20756
1304056287863,2.12417
1304056347863,2.12224
1304056407863,2.12815
1304056467863,2.12226
1304056527863,2.12635
1304056587863,2.13539
1304056647863,2.11332
1304056707863,2.13088
1304056767863,2.13518
1304056827873,2.13567
1304056887873,2.16985
1304056947873,2.13879
1304057007873,2.12483
1304057067873,2.16122
1304057127873,2.13246
1304057187873,2.13125
1304057247873,2.14091
1304057307873,2.13941
1304057367873,2.12820
1304057427873,2.14235
1304057487873,2.13720
1304057547873,2.13625
1304057607873,2.14045
1304057667873,2.13559
1304057727873,2.12547
1304057787873,2.12342
1304057847873,2.13281
1304057907873,2.12668
1304057967873,2.12944
1304058027873,2.13251
1304058087873,2.12199
1304058147873,2.12141
1304058207873,2.12640
1304058267873,2.12750
1304058327873,2.13317
1304058387873,2.12616
1304058447873,2.12388
1304058507873,2.11488
1304058567873,2.12387
1304058627873,2.13257
1304058687873,2.13322
1304058747873,2.12595
1304058807873,2.13288
1304058867873,2.13395
1304058927873,2.13334
1304058987873,2.11807
1304059047873,2.13577
1304059107873,2.11704
1304059167873,2.13013
1304059227873,2.13724
1304059287873,2.11396
1304059347873,2.12584
1304059407873,2.12330
1304059467873,2.12640
1304059527873,2.12698
1304059587873,2.13404
1304059647873,2.11242
1304059707873,2.14265
1304059767873,2.11824
1304059827873,2.12843
1304059887873,2.13037
1304059947873,2.11775
1304060007873,2.12409
1304060067873,2.12461
1304060127873,2.12681
1304060187873,2.12233
1304060247873,2.12799
1304060307873,2.13802
1304060367873,2.12568
1304060427884,2.13301
1304060487884,2.12581
1304060547884,2.14477
1304060607884,2.13029
1304060667884,2.12998
1304060727884,2.12592
1304060787884,2.13219
1304060847884,2.12857
1304060907884,2.14069
1304060967884,2.15327
1304061027884,2.14140
1304061087884,2.14967
1304061147884,2.13786
1304061207884,2.12986
1304061267884,2.13344
1304061327884,2.14366
1304061387884,2.14198
1304061447884,2.13958
1304061507884,2.16365
1304061567884,2.14388
1304061627884,2.14756
1304061687884,2.14314
1304061747884,2.15377
1304061807884,2.15012
1304061867884,2.14513
1304061927884,2.13931
1304061987884,2.14254
1304062047884,2.13786
1304062107884,2.13295
1304062167884,2.14555
1304062227884,2.13927
1304062287884,2.14157
1304062347884,2.13002
1304062407884,2.13431
1304062467884,2.14279
1304062527884,2.13231
1304062587884,2.13814
1304062647884,2.13267
1304062707884,2.13015
1304062767884,2.12787
1304062827884,2.13439
1304062887884,2.13949
1304062947884,2.14341
1304063007884,2.13230
1304063067884,2.15262
1304063127884,2.13685
1304063187884,2.12416
1304063247884,2.12088
1304063307884,2.13023
1304063367884,2.14200
1304063427884,2.13623
1304063487884,2.13281
1304063547884,2.13565
1304063607884,2.14160
1304063667884,2.13347
1304063727884,2.15300
1304063787884,2.13639
1304063847884,2.13424
1304063907884,2.13887
1304063967884,2.13311
1304064027894,2.12784
1304064087894,2.12257
1304064147894,2.12602
1304064207894,2.13241
1304064267894,2.14315
1304064327894,2.14560
1304064387894,2.11696
1304064447894,2.12033
1304064507894,2.12649
1304064567894,2.14404
1304064627894,2.11786
1304064687894,2.13922
1304064747894,2.15439
1304064807894,2.13189
1304064867894,2.13305
1304064927894,2.12687
1304064987894,2.11481
1304065047894,2.12155
1304065107894,2.11870
1304065167894,2.11081
1304065227894,2.11617
1304065287894,2.11374
1304065347894,2.11177
1304065407894,2.11807
1304065467894,2.12394
1304065527894,2.12390
1304065587894,2.10970
1304065647894,2.10979
1304065707894,2.10540
1304065767894,2.10925
1304065827894,2.11708
1304065887894,2.10209
1304065947894,2.12157
1304066007894,2.09804
1304066067894,2.10937
1304066127894,2.07589
1304066187894,2.10195
1304066247894,2.11228
1304066307894,2.11136
1304066367894,2.10894
1304066427894,2.10078
1304066487894,2.09758
1304066547894,2.09777
1304066607894,2.10109
1304066667894,2.10870
1304066727894,2.10864
1304066787894,2.09733
1304066847894,2.09984
1304066907894,2.10392
1304066967894,2.08361
1304067027894,2.08974
1304067087894,2.09765
1304067147894,2.10210
1304067207894,2.10087
1304067267894,2.09713
1304067327894,2.09138
1304067387894,2.09208
1304067447894,2.08300
1304067507894,2.09623
1304067567894,2.08782
1304067627905,2.09453
1304067687905,2.10023
1304067747905,2.08472
1304067807905,2.08040
1304067867905,2.08891
1304067927905,2.08260
1304067987905,2.08527
1304068047905,2.08829
1304068107905,2.09461
1304068167905,2.08698
1304068227905,2.08846
1304068287905,2.09680
1304068347905,2.09842
1304068407905,2.09995
1304068467905,2.08745
1304068527905,2.08679
1304068587905,2.09229
1304068647905,2.07900
1304068707905,2.09235
1304068767905,2.08061
1304068827905,2.08557
1304068887905,2.09538
1304068947905,2.08837
1304069007905,2.08826
1304069067905,2.08707
1304069127905,2.08452
1304069187905,2.08930
1304069247905,2.08813
1304069307905,2.10014
1304069367905,2.07542
1304069427905,2.08754
1304069487905,2.09580
1304069547905,2.07814
1304069607905,2.08183
1304069667905,2.09184
1304069727905,2.07877
1304069787905,2.07180
1304069847905,2.05103
1304069907905,2.06636
1304069967905,2.07925
1304070027905,2.08951
1304070087905,2.08600
1304070147905,2.07018
1304070207905,2.09515
1304070267905,2.06158
1304070327905,2.09095
1304070387905,2.07160
1304070447905,2.08465
1304070507905,2.07896
1304070567905,2.11957
1304070627905,2.13377
1304070687905,2.07219
1304070747905,2.07503
1304070807905,2.07959
1304070867905,2.07186
1304070927905,2.08401
1304070987905,2.08088
1304071047905,2.07690
1304071107905,2.09792
1304071167905,2.07616
1304071227915,2.08597
1304071287915,2.07724
1304071347915,2.07772
1304071407915,2.08832
1304071467915,2.08764
1304071527915,2.07790
1304071587915,2.08252
1304071647915,2.07439
1304071707915,2.07358
1304071767915,2.08225
1304071827915,2.08277
1304071887915,2.07331
1304071947915,2.07441
1304072007915,2.09170
1304072067915,2.08254
1304072127915,2.08432
1304072187915,2.10973
1304072247915,2.14733
1304072307915,2.08546
1304072367915,2.08710
1304072427915,2.08503
1304072487915,2.08089
1304072547915,2.08860
1304072607915,2.08468
1304072667915,2.06947
1304072727915,2.09536
1304072787915,2.08605
1304072847915,2.08883
1304072907915,2.09338
1304072967915,2.07966
1304073027915,2.08087
1304073087915,2.08398
1304073147915,2.08368
1304073207915,2.08558
1304073267915,2.08834
1304073327915,2.08943
1304073387915,2.09847
1304073447915,2.09066
1304073507915,2.09547
1304073567915,2.09462
1304073627915,2.08015
1304073687915,2.09131
1304073747915,2.09192
1304073807915,2.09121
1304073867915,2.09599
1304073927915,2.10230
1304073987915,2.08368
1304074047915,2.08433
1304074107915,2.08239
1304074167915,2.09382
1304074227915,2.07475
1304074287915,2.08905
1304074347915,2.09344
1304074407915,2.09476
1304074467915,2.08349
1304074527915,2.07478
1304074587915,2.08858
1304074647915,2.07659
1304074707915,2.09248
1304074767915,2.08479
1304074827925,2.09183
1304074887925,2.07950
1304074947925,2.08493
1304075007925,2.09566
1304075067925,2.06625
1304075127925,2.07118
1304075187925,2.07516
1304075247925,2.08986
1304075307925,2.07770
1304075367925,2.09142
1304075427925,2.08640
1304075487925,2.10172
1304075547925,2.08391
1304075607925,2.09106
1304075667925,2.08350
1304075727925,2.08702
1304075787925,2.09492
1304075847925,2.08127
1304075907925,2.07338
1304075967925,2.09036
1304076027925,2.09014
1304076087925,2.07931
1304076147925,2.09180
1304076207925,2.07267
1304076267925,2.09254
1304076327925,2.07798
1304076387925,2.08338
1304076447925,2.08003
1304076507925,2.09054
1304076567925,2.07880
1304076627925,2.07474
1304076687925,2.07077
1304076747925,2.07754
1304076807925,2.07895
1304076867925,2.08382
1304076927925,2.08205
1304076987925,2.09451
1304077047925,2.08470
1304077107925,2.08531
1304077167925,2.10457
1304077227925,2.08057
1304077287925,2.08981
1304077347925,2.09956
1304077407925,2.07477
1304077467925,2.10113
1304077527925,2.07240
1304077587925,2.10064
1304077647925,2.07619
1304077707925,2.09215
1304077767925,2.08458
1304077827925,2.10601
1304077887925,2.06552
1304077947925,2.07519
1304078007925,2.09005
1304078067925,2.09265
1304078127925,2.10576
1304078187925,2.09396
1304078247925,2.07863
1304078307925,2.09455
1304078367925,2.09521
1304078427936,2.09555
1304078487936,2.10803
1304078547936,2.08118
1304078607936,2.08001
1304078667936,2.09358
1304078727936,2.08799
1304078787936,2.09453
1304078847936,2.08361
1304078907936,2.09563
1304078967936,2.08985
1304079027936,2.08699
1304079087935,2.09264
1304079147935,2.09196
1304079207936,2.07253
1304079267936,2.09514
1304079327936,2.09761
1304079387936,2.09045
1304079447936,2.09296
1304079507936,2.09298
1304079567936,2.09354
1304079627936,2.10576
1304079687936,2.09712
1304079747936,2.10435
1304079807936,2.10224
1304079867936,2.10051
1304079927936,2.08761
1304079987936,2.08492
1304080047936,2.08554
1304080107936,2.09882
1304080167936,2.09684
1304080227936,2.09670
1304080287936,2.09082
1304080347936,2.07906
1304080407936,2.08511
1304080467935,2.09594
1304080527936,2.09091
1304080587936,2.10384
1304080647936,2.08839
1304080707936,2.09818
1304080767936,2.10108
1304080827936,2.09179
1304080887936,2.09891
1304080947936,2.09475
1304081007936,2.09580
1304081067936,2.08646
1304081127936,2.09424
1304081187936,2.10465
1304081247936,2.12692
1304081307936,2.10377
1304081367936,2.10067
1304081427936,2.10905
1304081487936,2.10696
1304081547936,2.10993
1304081607936,2.12331
1304081667936,2.10514
1304081727936,2.11246
1304081787935,2.11142
1304081847935,2.11214
1304081907936,2.10206
1304081967936,2.10582
1304082027946,2.10976
1304082087946,2.10306
1304082147946,2.10632
1304082207946,2.10766
1304082267946,2.10208
1304082327946,2.12147
1304082387946,2.10742
1304082447946,2.15872
1304082507946,2.08954
1304082567946,2.09163
1304082627946,2.10648
1304082687946,2.10596
1304082747946,2.11311
1304082807946,2.09583
1304082867946,2.08240
1304082927946,2.11395
1304082987946,2.10084
1304083047946,2.09600
1304083107946,2.10694
1304083167946,2.08731
1304083227946,2.10642
1304083287946,2.09442
1304083347946,2.08988
1304083407946,2.02634
1304083467946,2.02255
1304083527946,2.08071
1304083587946,2.09159
1304083647946,2.09656
1304083707946,2.10750
1304083767946,2.10288
1304083827946,2.08457
1304083887946,2.08752
1304083947946,2.11761
1304084007946,2.09371
1304084067946,2.08387
1304084127946,2.09024
1304084187946,2.09940
1304084247946,2.09969
1304084307946,2.10545
1304084367946,2.09854
1304084427946,2.09994
1304084487946,2.08559
1304084547946,2.08782
1304084607946,2.09382
1304084667946,2.11457
1304084727946,2.11468
1304084787946,2.07326
1304084847946,2.09274
1304084907946,2.09640
1304084967946,2.08833
1304085027946,2.08902
1304085087946,2.08832
1304085147946,2.09108
1304085207946,2.09793
1304085267946,2.08179
1304085327946,2.09701
1304085387946,2.08814
1304085447946,2.08532
1304085507946,2.10350
1304085567946,2.08446
1304085627956,2.08506
1304085687956,2.09269
1304085747956,2.08371
1304085807956,2.10936
1304085867956,2.08821
1304085927956,2.08674
1304085987956,2.10294
1304086047956,2.09396
1304086107956,2.11532
1304086167956,2.09781
1304086227956,2.09091
1304086287956,2.09210
1304086347956,2.08558
1304086407956,2.08911
1304086467956,2.08421
1304086527956,2.09990
1304086587956,2.08996
1304086647956,2.07341
1304086707956,2.09091
1304086767956,2.07851
1304086827956,2.07716
1304086887956,2.09888
1304086947956,2.07705
1304087007956,2.08141
1304087067956,2.08954
1304087127956,2.08197
1304087187956,2.08529
1304087247956,2.08523
1304087307956,2.09092
1304087367956,2.09961
1304087427956,2.08733
1304087487956,2.10378
1304087547956,2.08188
1304087607956,2.08860
1304087667956,2.08536
1304087727956,2.09472
1304087787956,2.08658
1304087847956,2.08698
1304087907956,2.07896
1304087967956,2.08955
1304088027956,2.09380
1304088087956,2.08771
1304088147956,2.09080
1304088207956,2.08000
1304088267956,2.09141
1304088327956,2.07333
1304088387956,2.09335
1304088447956,2.07397
1304088507956,2.08666
1304088567956,2.10411
1304088627956,2.07379
1304088687956,2.09018
1304088747956,2.08512
1304088807956,2.07737
1304088867956,2.07875
1304088927956,2.08089
1304088987956,2.08072
1304089047956,2.07020
1304089107956,2.07333
1304089167956,2.09352
1304089227966,2.08021
1304089287966,2.08762
1304089347966,2.08631
1304089407966,2.07590
1304089467966,2.07794
1304089527966,2.06436
1304089587966,2.08290
1304089647966,2.07843
1304089707966,2.08315
1304089767966,2.06214
1304089827966,2.08833
1304089887966,2.07659
1304089947966,2.07811
1304090007966,2.08160
1304090067966,2.07620
1304090127966,2.08771
1304090187966,2.07325
1304090247966,2.07594
1304090307966,2.09163
1304090367966,2.08669
1304090427966,2.09683
1304090487966,2.08462
1304090547966,2.07680
1304090607966,2.08796
1304090667966,2.07725
1304090727966,2.07678
1304090787966,2.07883
1304090847966,2.08711
1304090907966,2.09383
1304090967966,2.08141
1304091027966,2.08563
1304091087966,2.07986
1304091147966,2.06813
1304091207966,2.07758
1304091267966,2.08939
1304091327966,2.08701
1304091387966,2.08876
1304091447966,2.07786
1304091507966,2.09731
1304091567966,2.08456
1304091627966,2.09565
1304091687966,2.08640
1304091747966,2.08211
1304091807966,2.07995
1304091867966,2.07197
1304091927966,2.07242
1304091987966,2.08694
1304092047966,2.08488
1304092107966,2.08722
1304092167966,2.08358
1304092227966,2.07084
1304092287966,2.08646
1304092347966,2.08908
1304092407966,2.08900
1304092467966,2.07606
1304092527966,2.08572
1304092587966,2.09410
1304092647966,2.10045
1304092707966,2.10214
1304092767966,2.09265
1304092827976,2.08038
1304092887976,2.09522
1304092947976,2.07988
1304093007976,2.09335
1304093067976,2.08951
1304093127976,2.08956
1304093187976,2.08211
1304093247976,2.08589
1304093307976,2.07393
1304093367976,2.10163
1304093427976,2.09930
1304093487976,2.09557
1304093547976,2.08073
1304093607976,2.09006
1304093667976,2.08029
1304093727976,2.09198
1304093787976,2.09480
1304093847976,2.09603
1304093907976,2.09058
1304093967976,2.09757
1304094027976,2.09830
1304094087976,2.09225
1304094147976,2.07489
1304094207976,2.10145
1304094267976,2.08594
1304094327976,2.09936
1304094387976,2.08796
1304094447976,2.07659
1304094507976,2.08611
1304094567976,2.10369
1304094627976,2.10605
1304094687976,2.10051
1304094747976,2.10591
1304094807976,2.08495
1304094867976,2.09332
1304094927976,2.10070
1304094987976,2.09996
1304095047976,2.08284
1304095107976,2.08162
1304095167976,2.09511
1304095227976,2.09240
1304095287976,2.08306
1304095347976,2.09641
1304095407976,2.08804
1304095467976,2.08966
1304095527976,2.08602
1304095587976,2.09773
1304095647976,2.08623
1304095707976,2.08752
1304095767976,2.09843
1304095827976,2.09296
1304095887976,2.09847
1304095947976,2.10598
1304096007976,2.10871
1304096067976,2.08958
1304096127976,2.05515
1304096187976,2.09051
1304096247976,2.10235
1304096307976,2.10036
1304096367976,2.08360
1304096427986,2.08512
1304096487986,2.08582
1304096547986,2.09289
1304096607986,2.09380
1304096667986,2.08535
1304096727986,2.09062
1304096787986,2.08432
1304096847986,2.08142
1304096907986,2.09068
1304096967986,2.08184
1304097027986,2.09204
1304097087986,2.08651
1304097147986,2.09588
1304097207986,2.09649
1304097267986,2.08731
1304097327986,2.07631
1304097387986,2.08750
1304097447986,2.07783
1304097507986,2.09617
1304097567986,2.08681
1304097627986,2.09348
1304097687986,2.09002
1304097747986,2.09692
1304097807986,2.08400
1304097867986,2.09423
1304097927986,2.10216
1304097987986,2.10258
1304098047986,2.09834
1304098107986,2.10435
1304098167986,2.09010
1304098227986,2.09164
1304098287986,2.09561
1304098347986,2.09803
1304098407986,2.09075
1304098467986,2.09477
1304098527986,2.09511
1304098587986,2.07335
1304098647986,2.09901
1304098707986,2.07914
1304098767986,2.07739
1304098827986,2.08305
1304098887986,2.08746
1304098947986,2.10057
1304099007986,2.09560
1304099067986,2.10511
1304099127986,2.10293
1304099187986,2.09343
1304099247986,2.11221
1304099307986,2.09751
1304099367986,2.09688
1304099427986,2.10839
1304099487986,2.09789
1304099547986,2.08529
1304099607986,2.11015
1304099667986,2.08956
1304099727986,2.09934
1304099787986,2.10621
1304099847986,2.09192
1304099907986,2.09943
1304099967986,2.10795
1304100027996,2.09331
1304100087996,2.11653
1304100147996,2.10209
1304100207996,2.11069
1304100267996,2.09393
1304100327996,2.10691
1304100387996,2.12365
1304100447996,2.10756
1304100507996,2.11876
1304100567996,2.11199